When you browse on this site, cookies collect data to enhance your experience and personalize the content and advertising you see.
Visit our Privacy Policy to learn more. By continuing to use the site, you agree to this use of cookies and data.
  • In Schweiz
  • Länderverzeichnis
  • Für 7 Tage
  • Wassertemperatur
  • Satellitenkarten
  • Wetterkarte
  • Widgets
  • user-avatar
    Anmelden

    Stündliche Wetter Serhiivka

    Heute, 11 Dezember, Dienstag

    Zeit Temperatur Niederschläge Wind Luftdruck Luftfeuchtigkeit
    00:00 +4°C° 0 mm 2 m/S 754 mmHg 93%
    01:00 +4°C° 0 mm 2 m/S 754 mmHg 93%
    02:00 +2°C° 0 mm 3 m/S 754 mmHg 93%
    03:00 +2°C° 0 mm 3 m/S 754 mmHg 93%
    04:00 +1°C° 0 mm 4 m/S 753 mmHg 93%
    05:00 +1°C° 0 mm 4 m/S 753 mmHg 93%
    06:00 +1°C° 0.1 mm 5 m/S 753 mmHg 92%
    07:00 +1°C° 0.1 mm 6 m/S 753 mmHg 92%
    08:00 0°C° 0.1 mm 7 m/S 752 mmHg 92%
    09:00 +2°C° 1.9 mm 7 m/S 752 mmHg 91%
    10:00 +1°C° 1.9 mm 8 m/S 751 mmHg 91%
    11:00 +2°C° 1.9 mm 8 m/S 750 mmHg 90%
    12:00 +2°C° 3.6 mm 9 m/S 750 mmHg 91%
    13:00 +2°C° 3.6 mm 10 m/S 749 mmHg 91%
    14:00 +2°C° 3.6 mm 10 m/S 749 mmHg 91%
    15:00 +2°C° 2.5 mm 10 m/S 748 mmHg 91%
    16:00 +2°C° 2.5 mm 10 m/S 748 mmHg 90%
    17:00 +2°C° 2.5 mm 10 m/S 748 mmHg 89%
    18:00 +2°C° 1.4 mm 10 m/S 748 mmHg 89%
    19:00 +2°C° 1.4 mm 10 m/S 748 mmHg 89%
    20:00 +2°C° 1.4 mm 10 m/S 748 mmHg 89%
    21:00 +2°C° 1.3 mm 10 m/S 748 mmHg 89%
    22:00 +1°C° 1.3 mm 10 m/S 748 mmHg 89%
    23:00 +1°C° 1.3 mm 10 m/S 749 mmHg 89%

    Morgen, 12 Dezember, Mittwoch

    Zeit Temperatur Niederschläge Wind Luftdruck Luftfeuchtigkeit
    00:00 +1°C° 0.8 mm 10 m/S 749 mmHg 88%
    01:00 0°C° 0.8 mm 10 m/S 750 mmHg 88%
    02:00 -1°C° 0.8 mm 11 m/S 750 mmHg 88%
    03:00 0°C° 0.3 mm 10 m/S 751 mmHg 88%
    04:00 0°C° 0.3 mm 10 m/S 751 mmHg 87%
    05:00 -2°C° 0.3 mm 10 m/S 752 mmHg 87%
    06:00 -2°C° 0.1 mm 10 m/S 752 mmHg 86%
    07:00 -2°C° 0.1 mm 10 m/S 753 mmHg 86%
    08:00 -1°C° 0.1 mm 9 m/S 754 mmHg 86%
    09:00 -1°C° 0.1 mm 9 m/S 754 mmHg 85%
    10:00 -1°C° 0.1 mm 9 m/S 755 mmHg 85%
    11:00 0°C° 0.1 mm 9 m/S 755 mmHg 84%
    12:00 0°C° 0 mm 9 m/S 755 mmHg 83%
    13:00 0°C° 0 mm 9 m/S 756 mmHg 83%
    14:00 0°C° 0 mm 8 m/S 756 mmHg 82%
    15:00 0°C° 0 mm 8 m/S 756 mmHg 82%
    16:00 -1°C° 0 mm 7 m/S 757 mmHg 83%
    17:00 -1°C° 0 mm 6 m/S 757 mmHg 83%
    18:00 -1°C° 0 mm 6 m/S 758 mmHg 84%
    19:00 -1°C° 0 mm 6 m/S 758 mmHg 84%
    20:00 -1°C° 0 mm 5 m/S 758 mmHg 85%
    21:00 -1°C° 0 mm 5 m/S 759 mmHg 85%
    22:00 -1°C° 0 mm 5 m/S 759 mmHg 86%
    23:00 -1°C° 0 mm 5 m/S 759 mmHg 86%

    übermorgen, 13 Dezember, Donnerstag

    Zeit Temperatur Niederschläge Wind Luftdruck Luftfeuchtigkeit
    00:00 -1°C° 0 mm 5 m/S 759 mmHg 86%
    01:00 -2°C° 0 mm 5 m/S 760 mmHg 86%
    02:00 -2°C° 0 mm 4 m/S 760 mmHg 85%
    03:00 -2°C° 0 mm 4 m/S 760 mmHg 84%
    04:00 -1°C° 0 mm 4 m/S 760 mmHg 83%
    05:00 -1°C° 0 mm 4 m/S 760 mmHg 82%
    06:00 -1°C° 0 mm 4 m/S 760 mmHg 82%
    07:00 -1°C° 0 mm 5 m/S 761 mmHg 81%
    08:00 -1°C° 0 mm 5 m/S 761 mmHg 80%
    09:00 0°C° 0 mm 5 m/S 761 mmHg 75%
    10:00 +2°C° 0 mm 6 m/S 761 mmHg 70%
    11:00 +3°C° 0 mm 7 m/S 761 mmHg 65%
    12:00 +3°C° 0.1 mm 6 m/S 762 mmHg 66%
    13:00 +3°C° 0.1 mm 5 m/S 762 mmHg 67%
    14:00 +4°C° 0.1 mm 4 m/S 762 mmHg 67%
    15:00 +3°C° 0.1 mm 4 m/S 762 mmHg 71%
    16:00 +3°C° 0.1 mm 4 m/S 762 mmHg 76%
    17:00 +1°C° 0.1 mm 4 m/S 762 mmHg 80%
    18:00 +1°C° 0 mm 4 m/S 762 mmHg 82%
    19:00 +1°C° 0 mm 4 m/S 763 mmHg 83%
    20:00 0°C° 0 mm 4 m/S 763 mmHg 85%
    21:00 0°C° 0 mm 4 m/S 763 mmHg 86%
    22:00 0°C° 0 mm 4 m/S 763 mmHg 86%
    23:00 0°C° 0 mm 4 m/S 763 mmHg 87%

    14 Dezember, Freitag

    Zeit Temperatur Niederschläge Wind Luftdruck Luftfeuchtigkeit
    00:00 0°C° 0 mm 4 m/S 763 mmHg 87%
    01:00 0°C° 0 mm 4 m/S 764 mmHg 86%
    02:00 0°C° 0 mm 4 m/S 764 mmHg 85%
    03:00 0°C° 0 mm 4 m/S 764 mmHg 85%
    04:00 +1°C° 0 mm 3 m/S 764 mmHg 84%
    05:00 +1°C° 0 mm 3 m/S 764 mmHg 84%
    06:00 +1°C° 0 mm 3 m/S 764 mmHg 83%
    07:00 +1°C° 0 mm 3 m/S 764 mmHg 83%
    08:00 +1°C° 0 mm 3 m/S 765 mmHg 83%
    09:00 +2°C° 0 mm 3 m/S 765 mmHg 78%
    10:00 +3°C° 0 mm 3 m/S 765 mmHg 74%
    11:00 +4°C° 0 mm 3 m/S 765 mmHg 69%
    12:00 +4°C° 0 mm 3 m/S 765 mmHg 69%
    13:00 +5°C° 0 mm 2 m/S 766 mmHg 68%
    14:00 +6°C° 0 mm 2 m/S 766 mmHg 67%
    15:00 +5°C° 0 mm 2 m/S 766 mmHg 71%
    16:00 +4°C° 0 mm 2 m/S 766 mmHg 76%
    17:00 +4°C° 0 mm 1 m/S 766 mmHg 81%
    18:00 +3°C° 0 mm 1 m/S 767 mmHg 82%
    19:00 +3°C° 0 mm 1 m/S 767 mmHg 84%
    20:00 +3°C° 0 mm 1 m/S 767 mmHg 85%
    21:00 +3°C° 0 mm 1 m/S 768 mmHg 86%
    22:00 +2°C° 0 mm 1 m/S 768 mmHg 86%
    23:00 +2°C° 0 mm 1 m/S 768 mmHg 87%

    15 Dezember, Samstag

    Zeit Temperatur Niederschläge Wind Luftdruck Luftfeuchtigkeit
    00:00 +2°C° 0 mm 1 m/S 768 mmHg 87%
    01:00 +2°C° 0 mm 1 m/S 768 mmHg 87%
    02:00 +1°C° 0 mm 1 m/S 769 mmHg 88%
    03:00 +1°C° 0 mm 1 m/S 769 mmHg 87%
    04:00 +1°C° 0 mm 1 m/S 769 mmHg 86%
    05:00 +2°C° 0 mm 1 m/S 769 mmHg 86%
    06:00 +2°C° 0 mm 1 m/S 769 mmHg 86%
    07:00 +1°C° 0 mm 1 m/S 770 mmHg 85%
    08:00 +1°C° 0 mm 1 m/S 770 mmHg 85%
    09:00 +2°C° 0 mm 1 m/S 770 mmHg 81%
    10:00 +3°C° 0 mm 1 m/S 770 mmHg 77%
    11:00 +4°C° 0 mm 1 m/S 770 mmHg 73%
    12:00 +4°C° 0 mm 1 m/S 770 mmHg 72%
    13:00 +4°C° 0 mm 2 m/S 770 mmHg 71%
    14:00 +4°C° 0 mm 2 m/S 770 mmHg 70%
    15:00 +3°C° 0 mm 2 m/S 770 mmHg 74%
    16:00 +1°C° 0 mm 3 m/S 771 mmHg 78%
    17:00 0°C° 0 mm 3 m/S 771 mmHg 83%
    18:00 0°C° 0 mm 3 m/S 771 mmHg 83%
    19:00 0°C° 0 mm 3 m/S 771 mmHg 84%
    20:00 -1°C° 0 mm 4 m/S 771 mmHg 84%
    21:00 -1°C° 0 mm 4 m/S 770 mmHg 85%
    22:00 -1°C° 0 mm 4 m/S 770 mmHg 86%
    23:00 -1°C° 0 mm 4 m/S 770 mmHg 86%

    16 Dezember, Sonntag

    Zeit Temperatur Niederschläge Wind Luftdruck Luftfeuchtigkeit
    00:00 -1°C° 0 mm 4 m/S 770 mmHg 86%
    01:00 -1°C° 0 mm 5 m/S 770 mmHg 86%
    02:00 0°C° 0 mm 5 m/S 770 mmHg 86%
    03:00 0°C° 0 mm 5 m/S 770 mmHg 87%
    04:00 0°C° 0 mm 5 m/S 769 mmHg 88%
    05:00 -1°C° 0 mm 6 m/S 769 mmHg 90%
    06:00 -1°C° 0 mm 6 m/S 769 mmHg 90%
    07:00 -1°C° 0 mm 6 m/S 769 mmHg 90%
    08:00 +1°C° 0 mm 6 m/S 769 mmHg 91%
    09:00 0°C° 0 mm 7 m/S 769 mmHg 86%
    10:00 +2°C° 0 mm 7 m/S 769 mmHg 81%
    11:00 +2°C° 0 mm 8 m/S 769 mmHg 76%
    12:00 +2°C° 0 mm 8 m/S 769 mmHg 74%
    13:00 +2°C° 0 mm 8 m/S 769 mmHg 72%
    14:00 +2°C° 0 mm 8 m/S 768 mmHg 71%
    15:00 +3°C° 0 mm 7 m/S 768 mmHg 74%
    16:00 +2°C° 0 mm 7 m/S 768 mmHg 77%
    17:00 0°C° 0 mm 7 m/S 769 mmHg 80%
    18:00 0°C° 0 mm 7 m/S 768 mmHg 80%
    19:00 0°C° 0 mm 7 m/S 768 mmHg 80%
    20:00 -1°C° 0 mm 7 m/S 768 mmHg 80%
    21:00 -1°C° 0 mm 7 m/S 768 mmHg 81%
    22:00 -1°C° 0 mm 7 m/S 768 mmHg 82%
    23:00 -1°C° 0 mm 7 m/S 768 mmHg 83%
    Mehr zeigen